Regional Weather Roundup
Issued by NWS

Home | Current Version | Previous Version | Text Only | Print | Product List | Glossary On
Versions: 1 2 3 4 5 6 7 8 9 10 11 12 13 14 15 16 17 18 19 20 21 22 23 24 25 26 27
000
ASUS44 KBMX 061810
RWRAL

ALABAMA REGIONAL WEATHER ROUNDUP
NATIONAL WEATHER SERVICE BIRMINGHAM AL
1200 PM CST TUE DEC 06 2016

NOTE: "FAIR" INDICATES FEW OR NO CLOUDS BELOW 12,000 FEET
WITH NO SIGNIFICANT WEATHER AND/OR OBSTRUCTIONS TO VISIBILITY.

THE REMARK "TC" DENOTES TEMPERATURE IN DEGREES CELSIUS.

ALZ001>011-014-016>018-020-061900-
NORTH ALABAMA

CITY           SKY/WX    TMP DP  RH WIND       PRES   REMARKS
MUSCLE SHOALS  CLOUDY    52  48  86 W15       29.80R
6HR MIN TEMP:  52; 6HR MAX TEMP:  57; 6HR PCP:  0.15;

HUNTSVILLE     CLOUDY    58  53  84 W18       29.76R
6HR MIN TEMP:  56; 6HR MAX TEMP:  60; 6HR PCP:  0.25;

DECATUR        CLOUDY    55  53  93 W14       29.77R
6HR MIN TEMP:  54; 6HR MAX TEMP:  58; 6HR PCP:  0.33;

HALEYVILLE     CLOUDY    51  50  96 NW9       29.81R
6HR MIN TEMP:  51; 6HR MAX TEMP:  56; 6HR PCP:  0.06;

GADSDEN        CLOUDY    60  57  89 W12       29.76R
6HR MIN TEMP:  55; 6HR MAX TEMP:  61; 6HR PCP:  0.25;

$$

ALZ012-013-022-023-030>036-040>044-061900-
WEST CENTRAL ALABAMA

CITY           SKY/WX    TMP DP  RH WIND       PRES   REMARKS
TUSCALOOSA     CLOUDY    56  49  77 W10       29.85R
6HR MIN TEMP:  54; 6HR MAX TEMP:  60; 6HR PCP:  0.01;

$$

ALZ015-024>027-033>036-040>044-061900-
CENTRAL ALABAMA

CITY           SKY/WX    TMP DP  RH WIND       PRES   REMARKS
BIRMINGHAM     CLOUDY    56  54  93 W17G26    29.82R
6HR MIN TEMP:  56; 6HR MAX TEMP:  61; 6HR PCP:  0.08;

MONTGOMERY     CLOUDY    64  52  64 W17       29.82S
6HR MIN TEMP:  58; 6HR MAX TEMP:  67; 6HR PCP:  0.01;

SHELBY CO ARPT CLOUDY    58  53  84 W13G20    29.82R
6HR MIN TEMP:  57; 6HR MAX TEMP:  62; 6HR PCP:  0.01;

MAXWELL AFB    CLOUDY    63  55  75 W8        29.81S
6HR MIN TEMP:  57; 6HR MAX TEMP:  67; 6HR PCP:  0.02;

GREENVILLE     CLOUDY    63  53  70 W8        29.83F
6HR MIN TEMP:  62; 6HR MAX TEMP:  66;

$$

ALZ019-021-028-029-037-038-045>048-061900-
EAST CENTRAL ALABAMA

CITY           SKY/WX    TMP DP  RH WIND       PRES   REMARKS
ANNISTON       CLOUDY    62  58  86 W13       29.75F
6HR MIN TEMP:  56; 6HR MAX TEMP:  64; 6HR PCP:  0.04;

ALEXANDER CITY CLOUDY    63  59  87 SW9       29.78S
6HR MIN TEMP:  60; 6HR MAX TEMP:  67; 6HR PCP:  0.07;

AUBURN         CLOUDY    64  55  72 W15G22    29.79S
6HR MIN TEMP:  57; 6HR MAX TEMP:  66; 6HR PCP:  0.01;

$$

ALZ051>064-061900-
SOUTHWEST ALABAMA

CITY           SKY/WX    TMP DP  RH WIND       PRES   REMARKS
MOBILE         PTSUNNY   63  53  70 W8        29.90S
6HR MIN TEMP:  58; 6HR MAX TEMP:  63;

BROOKLEY FIELD CLOUDY    64  55  72 W8        29.91S
6HR MIN TEMP:  60; 6HR MAX TEMP:  64;

EVERGREEN      CLOUDY    61  54  77 W8        29.86F
6HR MIN TEMP:  60; 6HR MAX TEMP:  66;

$$

ALZ049-050-065>069-061900-
SOUTHEAST ALABAMA

CITY           SKY/WX    TMP DP  RH WIND       PRES   REMARKS
DOTHAN         PTSUNNY   70  60  70 W13G25    29.84S
6HR MIN TEMP:  69; 6HR MAX TEMP:  72;

OZARK          CLOUDY    68  58  69 W14       29.81S
6HR MIN TEMP:  68; 6HR MAX TEMP:  71;

TROY           CLOUDY    63  56  78 W15G26    29.84R
6HR MIN TEMP:  62; 6HR MAX TEMP:  69; 6HR PCP: TRACE;

EUFAULA        PTSUNNY   74  55  51 W8G18     29.77S
6HR MIN TEMP:  60; 6HR MAX TEMP:  76;

$$




USA.gov is the U.S. government's official web portal to all federal, state and local government web resources and services.